Huntsville, AL

3:30 PM CST on February 22, 2017 (GMT -0600)
Huntsville International

Weather History for KHSV - April, 2012

Change the Weather History Date:

Monday, April 2, 2012

  Actual Average Record
Temperature  
Mean Temperature 73 °F 58 °F  
Max Temperature 85 °F 70 °F 86 °F (1963)
Min Temperature 60 °F 46 °F 25 °F (1924)
Degree Days  
Heating Degree Days 0 8  
Month to date heating degree days 0 16  
Since 1 July heating degree days 2244 2836  
Cooling Degree Days 8 1  
Month to date cooling degree days 12 2  
Year to date cooling degree days 94 16  
Growing Degree Days 22 (Base 50)    
Moisture  
Dew Point 61 °F    
Average Humidity 68    
Maximum Humidity 93    
Minimum Humidity 43    
Precipitation  
Precipitation 0.00 in 0.15 in 2.47 in (1920)
Month to date precipitation 0.00 0.31  
Year to date precipitation 15.67 15.25  
Snow  
Snow 0.00 in - - ()
Month to date snowfall 0.0  
Since 1 July snowfall T  
Snow Depth 0.00 in    
Sea Level Pressure  
Sea Level Pressure 29.84 in    
Wind  
Wind Speed 4 mph (SSW)    
Max Wind Speed 12 mph    
Max Gust Speed 16 mph    
Visibility 9 miles    
Events Fog    
T = Trace of Precipitation, MM = Missing Value Source: NWS Daily Summary

Daily Weather History Graph

Daily Weather History Graph

Search for Another Location

Airport or City:

Trip Planner

Search our weather history database for the weather conditions in past years. The results will help you decide how hot, cold, wet, or windy it might be!

Date:

Astronomy

Apr. 02, 2012 Rise Set
Actual Time 6:32 AM CDT 7:09 PM CDT
Civil Twilight 6:06 AM CDT 7:34 PM CDT
Nautical Twilight 5:36 AM CDT 8:04 PM CDT
Astronomical Twilight 5:06 AM CDT 8:35 PM CDT
Moon 2:54 PM CDT (4/2) 3:34 AM CDT (4/2)
Length of Visible Light 13h 28m
Length of Day
12h 37m
Waxing Gibbous, 78% of the Moon is Illuminated
Apr 2
Waxing Gibbous
Apr 6
Full
Apr 13
Last Quarter
Apr 21
New
Apr 29
First Quarter

Hourly Weather History & Observations

Time (CDT) Temp. Heat Index Dew Point Humidity Pressure Visibility Wind Dir Wind Speed Gust Speed Precip Events Conditions
12:53 AM 66.9 °F - 60.1 °F 79% 29.78 in 10.0 mi SW 5.8 mph - N/A   Clear
1:53 AM 66.0 °F - 60.1 °F 81% 29.78 in 10.0 mi SSW 3.5 mph - N/A   Clear
2:53 AM 64.0 °F - 59.0 °F 84% 29.77 in 10.0 mi Calm Calm - N/A   Clear
3:53 AM 61.0 °F - 57.9 °F 90% 29.77 in 9.0 mi ESE 3.5 mph - N/A   Clear
4:53 AM 60.1 °F - 57.0 °F 90% 29.80 in 8.0 mi Calm Calm - N/A   Clear
5:53 AM 60.1 °F - 57.9 °F 93% 29.82 in 8.0 mi ESE 3.5 mph - N/A Fog Shallow Fog
6:53 AM 61.0 °F - 57.9 °F 90% 29.85 in 6.0 mi Calm Calm - N/A   Partly Cloudy
7:53 AM 64.9 °F - 62.1 °F 90% 29.88 in 6.0 mi SSE 3.5 mph - N/A   Partly Cloudy
8:53 AM 70.0 °F - 63.0 °F 78% 29.89 in 8.0 mi SW 3.5 mph - N/A   Partly Cloudy
9:53 AM 73.9 °F - 64.0 °F 71% 29.89 in 10.0 mi WSW 6.9 mph - N/A   Partly Cloudy
10:53 AM 75.0 °F - 64.9 °F 71% 29.90 in 10.0 mi SW 5.8 mph - N/A   Mostly Cloudy
11:53 AM 79.0 °F - 64.9 °F 62% 29.89 in 10.0 mi Variable 3.5 mph - N/A   Mostly Cloudy
12:12 PM 78.8 °F - 64.4 °F 61% 29.90 in 10.0 mi Variable 6.9 mph - N/A   Scattered Clouds
12:53 PM 81.0 °F 81.9 °F 62.1 °F 52% 29.87 in 10.0 mi West 8.1 mph - N/A   Partly Cloudy
1:53 PM 82.9 °F 83.3 °F 61.0 °F 47% 29.85 in 10.0 mi West 8.1 mph - N/A   Partly Cloudy
2:53 PM 84.0 °F 84.4 °F 61.0 °F 46% 29.83 in 10.0 mi SW 6.9 mph - N/A   Partly Cloudy
3:53 PM 84.0 °F 84.0 °F 60.1 °F 44% 29.81 in 10.0 mi Calm Calm - N/A   Partly Cloudy
4:53 PM 84.0 °F 83.8 °F 59.0 °F 43% 29.79 in 10.0 mi Calm Calm - N/A   Partly Cloudy
5:53 PM 82.9 °F 83.3 °F 61.0 °F 47% 29.78 in 10.0 mi SSE 3.5 mph - N/A   Partly Cloudy
6:53 PM 80.1 °F 81.2 °F 62.1 °F 54% 29.82 in 10.0 mi SSW 5.8 mph - N/A   Partly Cloudy
7:53 PM 75.9 °F - 62.1 °F 62% 29.86 in 10.0 mi SSW 5.8 mph - N/A   Partly Cloudy
8:53 PM 73.0 °F - 61.0 °F 66% 29.88 in 10.0 mi South 4.6 mph - N/A   Clear
9:53 PM 70.0 °F - 61.0 °F 73% 29.89 in 10.0 mi South 3.5 mph - N/A   Clear
10:53 PM 68.0 °F - 61.0 °F 78% 29.89 in 10.0 mi Calm Calm - N/A   Partly Cloudy
11:53 PM 68.0 °F - 61.0 °F 78% 29.88 in 10.0 mi WSW 5.8 mph - N/A   Partly Cloudy